Flag for Poland Weather past 2 weeks in Kielce, Poland

Now
71 °F

Overcast.


Feels Like: 77 °F
Forecast: 55 / 80 °F
Wind: 3 mph from Southeast

Location: Kielce

Current Time: Aug 1, 2015 at 9:01:21 PM

Latest Report: Aug 1, 2015 at 7:00 PM


Visibility: 25 mi

Pressure: 30.08 "Hg

Humidity: 40%

Dew point: 46 °F

Location of KielceLocation

Historic Weather in Kielce — Graph

°F

Kielce temperature yesterday

Maximum temperature yesterday: 70 °F (at 4:00 PM)
Minimum temperature yesterday: 46 °F (at 3:00 AM)
Average temperature yesterday: 60 °F

Past Weeks' High & Low Weather Summary

 TemperatureHumidityPressure
High93 °F (Jul 18, 3:00 PM)98% (Jul 22, 5:00 AM)30.18 "Hg (Jul 22, 5:00 AM)
Low42 °F (Aug 1, 4:00 AM)29% (Jul 18, 3:00 PM)29.64 "Hg (Jul 25, 4:00 PM)
Average68 °F68%29.90 "Hg
* Reported Jul 17 8:00 PM — Aug 1 7:00 PM, Kielce, Weather by CustomWeather, © 2015

Note: Actual official high and low records may vary slightly from our data, if they occured in-between our weather recording intervals... More about our weather records

Advertising

Kielce weather history for previous 24 hours

 ConditionsComfort  
Time TempWeatherWind HumidityBarometerVisibility
7:00 PM
Sat, Aug 1
71 °FOvercast.3 mph40%30.08 "Hg25 mi
6:00 PM74 °FOvercast.3 mph35%30.07 "Hg25 mi
5:00 PM75 °FOvercast.2 mph32%30.07 "Hg19 mi
4:00 PM76 °FPartly sunny.3 mph31%30.08 "Hg22 mi
3:00 PM74 °FScattered clouds.2 mph33%30.09 "Hg22 mi
2:00 PM74 °FPartly sunny.3 mph35%30.11 "Hg19 mi
1:00 PM73 °FPartly sunny.5 mph37%30.12 "Hg19 mi
12:00 PM72 °FPartly sunny.3 mph39%30.13 "Hg15 mi
11:00 AM68 °FOvercast.1 mph42%30.14 "Hg25 mi
10:00 AM67 °FScattered clouds.2 mph50%30.15 "Hg25 mi
9:00 AM63 °FScattered clouds.3 mph58%30.16 "Hg22 mi
8:00 AM57 °FPartly sunny.1 mph73%30.16 "Hg16 mi
7:00 AM49 °FPartly sunny.No wind90%30.18 "Hg22 mi
4:00 AM42 °FFog.1 mph92%30.17 "Hg10 mi
3:00 AM42 °FPassing clouds.1 mph89%30.17 "Hg14 mi
2:00 AM45 °FPassing clouds.1 mph87%30.16 "Hg14 mi
1:00 AM44 °FClear.1 mph87%30.16 "Hg19 mi
12:00 AM49 °FClear.1 mph80%30.14 "Hg17 mi
10:00 PM
Fri, Jul 31
54 °FClear.1 mph61%30.11 "Hg25 mi
9:00 PM60 °FPassing clouds.2 mph50%30.09 "Hg28 mi
Weather by CustomWeather, © 2015

See weather overviewHow to use our weather pages